Погода Тас-Тумус

Погода Тас-Тумус : погода сейчас, прогноз погоды и архив. Всё, что Вы хотите узнать о погоде Тас-Тумус!

Поиск расширенной информации на нашем сайте:

Другие новости

Новости СМИ2

Главная страница сайта

Новости сайта

03.07.2017

Напоминаем, что на нашем специализированном сайте Метеоцентр.Азия вы можете получить высокодетализированные автоматические прогнозы погоды по пунктам России, СНГ и мира в авиационном формате (включающие направление и скорость ветра, видимость, явления погоды, количество и форму облачности, нижнюю и верхнюю границу облачности).


Погода Тас-Тумус - сегодня

Время (UTC), дата Ветер
(°,м/с) 
Видим.   Явления Облачность Т
(°С)
Тd
(°С)
f(%) Тe
(°С)
Pmin
(гПа)
dP
(гПа)
Po
(мм)
O2
(г/м3)
Тmin Tmax R s Состояние
почвы
18 14.04.18 120 (ЮВ) 20000 м    9/0 средняя, верхняя 
[Ac trans|Ci fib]
-1.4 -9.1 56 -1  1009.2  -1  749  304           
21 14.04.18 120 (ЮВ) 20000 м    4/0 средняя 
[Ac trans]
-2 -8.2 62 -3  1007.4  -1.8  748  304           
03 15.04.18 110 (В) 20000 м    4/0 средняя 
[Ac trans]
+6.7 -4.9 43 +6  1003.9  -1.9  745  294           
06 15.04.18 110 (В) 20000 м    10/0 средняя, верхняя 
[Ac trans|Cs]
+7.8 -3.9 43 +7  1001.6  -2.2  743  292           
09 15.04.18 110 (В) 20000 м    9/0 средняя, верхняя 
[Ac trans|Ci fib]
+8 -4.4 41 +7  1000.5  -1.1  743  291           
15 15.04.18 120 (ЮВ) 20000 м    4/0 средняя, верхняя 
[Ac trans|Ci fib]
+3 -5.8 52 +2  1000.1  -0.6  742  296           
18 15.04.18 120 (ЮВ) 20000 м    4/0 средняя, верхняя 
[Ac trans|Ci fib]
+1.7 -6.4 55 999.3  -0.8  742  298           
21 15.04.18 120 (ЮВ) 20000 м    8/0 верхняя 
[Cs]
+1.2 -6.7 56 998.7  -0.7  741  298           
03 16.04.18 110 (В) 20000 м    10/0 средняя 
[As trans]
+5.2 -4.5 50 +6  989.2  0.3  742  294           
06 16.04.18 310 (СЗ) 20000 м    10/5 600 м средняя 
[Sc|As trans]
+3 -0.8 76 +4  1000.4  1.1  742  296           
09 16.04.18 310 (СЗ) 10 км  слаб. снег  10/6 600 м средняя 
[Sc|As op]
+0.4 +0.4 100 -1  1001.8  1.3  743  299           
15 16.04.18 320 (СЗ) 20000 м    9/9 600 м 
[Sc]
-1.6 -3.8 85 -4  1003.2  744  302           
18 16.04.18 320 (СЗ) 20000 м    6/0 средняя 
[Ac trans]
-2.2 -5.6 77 -4  1002.9  -0.2  744  303           
03 17.04.18 320 (СЗ) 20000 м    6/0 верхняя 
[Ci fib]
+0.8 -7.7 53 -2  1003.3  0.2  745  300           
15 17.04.18 тихо ()   20000 м    ясно 
-4.2 -9.7 65 -4  1003.9  745  306           
18 17.04.18 тихо ()   20000 м    ясно 
-6 -11.3 66 -6  1003.9  745  308           
21 17.04.18 тихо ()   20000 м    ясно 
-8.2 -10.9 81 -8  1004.2  0.2  745  311           
03 18.04.18 тихо ()   20000 м    ясно 
+5.6 -7.7 38 +6  1004.4  745  295           
06 18.04.18 тихо ()   20000 м    ясно 
+7 -8 33 +7  1003.4  -0.9  745  293           
09 18.04.18 140 (ЮВ) 20000 м    3/0 верхняя 
[Ci fib]
+5.6 -8.7 35 +6  1002.7  -0.7  744  295           
15 18.04.18 120 (ЮВ) 20000 м    9/6 600 м средняя 
[Sc|Ac trans]
+2 -7.3 50 +3  1001.3  -0.8  743  298           
18 18.04.18 120 (ЮВ) 20000 м    10/6 600 м средняя 
[Sc|As trans]
+1.8 -7.6 50 +1  1000  -1.3  742  298           
21 18.04.18 120 (ЮВ) 20000 м    9/5 600 м средняя 
[Sc|As trans]
+1.5 -7.6 51 999.1  -1  741  298           
06 19.04.18 тихо ()   20000 м  {снег}  10/6 600 м средняя 
[Sc|As trans]
+1 +0.5 96 +1  1004.9  1.7  746  299           
09 19.04.18 270 (З) 20000 м    9/0 средняя, верхняя 
[Ac trans|Ci fib]
+1.6 -4.6 63 +2  1005.9  1.1  747  300           
Время (UTC), дата Ветер
(°,м/с) 
Видим.   Явления Облачность Т
(°С)
Тd
(°С)
f(%) Тe
(°С)
Pmin
(гПа)
dP
(гПа)
Po
(мм)
O2
(г/м3)
Тmin Tmax R s Состояние
почвы

Для получения пояснительной информации подведите курсор к названию столбца.

ПОГОДА Тас-Тумус - архив

Всё, что Вы хотите узнать о погоде Тас-Тумус - удобно и подробно!

Выберите нужную дату (начиная с 1 января 2015* года) и нажмите кнопку "Найти".
Будут отображены архивные сводки погоды по пункту Тас-Тумус, начиная с указанной даты.


Отображать данные в формате CSV (для использования в таблицах Excel)


Внимание! Наш архив погоды предназначен исключительно для личного некоммерческого использования в познавательных целях. Если Вам необходимы официальные справки о состоянии погоды (для производственных, юридических, коммерческих и т.п. целей), обращайтесь в органы Росгидромета.

*Примечание: данная дата относится к архиву по метеостанциям СССР (Россия, СНГ, Балтия).
Архив по метеостанциям Зарубежной Европы и Азии (кроме Китая) хранится 10 дней, по другим регионам земного шара (Китай, Африка, Америка, Австралия, Океания) - 1 день.

Тас-Тумус - район местоположения метеостанции


Название, широта, долгота, высота метеостанции:
Тас-Тумус 64.2°ш. 126.6°д. 76 м над ур. моря [Российская Федерация]

Дополнительная информация

В oтличие oт бoльшинства пoгoдных сайтoв мы публикуем пoдрoбную метеoинфoрмацию в детальнoм прoфессиoнальнoм фoрмате.

Характеристики температуры и влажнoсти вoздуха измеряются на высoте 2 м в тени вдали oт зданий и деревьев.
Скoрoсть ветра измеряется на высoте 10 м (на урoвне рoста челoвека скoрoсть ветра ниже в 1.5-2 раза). Если метеoстанция нахoдится в гoрoде или в лесу, тo скoрoсть ветра занижена на 2-4 м/с пo сравнению с oткрытым местoм. Скoрoсть ветра над акватoриями крупных рек и oзёр, а также на вершинах хoлмoв на 2-5 м/с выше, чем в oбычных услoвиях.
Атмoсфернoе давление в разных тoчках местнoсти мoжет значительнo oтличаться oт давления на метеoстанции, в зависимoсти oт услoвий рельефа (при пoдъёме на 10 м давление пoнижается примернo на 1 мм рт.ст.).